QPF
0.00 0.00 0.00 0.00 0.00 0.00 0.00 0.00 0.00 0.01 0.00 0.00 0.01 0.01 0.01 0.01 0.03 0.02 0.02 0.02 0.02 0.02 0.01 0.02 0.03 0.03 0.05 0.07 0.04 0.03 0.02 0.03 0.06 0.06 0.03 0.02 0.02 0.01 0.01 0.01 0.01 0.01 0.01 0.01
0.00 0.00 0.00 0.00 0.00 0.00 0.00 0.00 0.01 0.01 0.01 0.00 0.00 0.00 0.01 0.01 0.01 0.01 0.02 0.01 0.02 0.02 0.01 0.01 0.02 0.03 0.05 0.06 0.03 0.03 0.03 0.03 0.03 0.06 0.06 0.03 0.03 0.02 0.01 0.01 0.01 0.01 0.01 0.01
0.01 0.00 0.00 0.01 0.00 0.00 0.00 0.00 0.01 0.01 0.01 0.00 0.00 0.00 0.00 0.00 0.00 0.00 0.01 0.02 0.02 0.02 0.02 0.01 0.01 0.01 0.02 0.03 0.02 0.02 0.03 0.04 0.04 0.03 0.03 0.03 0.02 0.02 0.02 0.01 0.01 0.01 0.01 0.01
0.01 0.01 0.01 0.01 0.00 0.00 0.01 0.01 0.01 0.00 0.00 0.00 0.00 0.01 0.00 0.00 0.00 0.01 0.01 0.02 0.03 0.04 0.04 0.02 0.02 0.01 0.01 0.01 0.01 0.02 0.03 0.04 0.04 0.04 0.03 0.02 0.02 0.02 0.02 0.02 0.01 0.01 0.01 0.01
0.01 0.01 0.01 0.01 0.00 0.00 0.01 0.01 0.01 0.01 0.01 0.01 0.01 0.01 0.01 0.00 0.00 0.00 0.01 0.02 0.04 0.06 0.06 0.05 0.03 0.02 0.01 0.01 0.01 0.01 0.02 0.03 0.03 0.04 0.04 0.03 0.02 0.02 0.03 0.02 0.01 0.01 0.01 0.01
0.01 0.02 0.02 0.01 0.00 0.01 0.01 0.03 0.02 0.02 0.02 0.02 0.01 0.02 0.02 0.01 0.00 0.00 0.01 0.02 0.04 0.06 0.06 0.06 0.04 0.02 0.01 0.01 0.01 0.01 0.01 0.02 0.03 0.04 0.06 0.05 0.04 0.03 0.03 0.03 0.03 0.03 0.02 0.01
0.02 0.02 0.02 0.01 0.01 0.01 0.02 0.03 0.02 0.02 0.02 0.02 0.02 0.02 0.02 0.01 0.01 0.01 0.01 0.02 0.03 0.05 0.05 0.04 0.04 0.03 0.02 0.01 0.02 0.02 0.02 0.01 0.02 0.03 0.04 0.04 0.04 0.04 0.04 0.04 0.03 0.03 0.02 0.02
0.02 0.03 0.03 0.01 0.01 0.02 0.03 0.02 0.01 0.02 0.02 0.02 0.02 0.02 0.02 0.02 0.02 0.02 0.02 0.02 0.02 0.03 0.03 0.03 0.03 0.02 0.02 0.01 0.01 0.01 0.02 0.02 0.02 0.03 0.03 0.04 0.05 0.04 0.03 0.03 0.03 0.03 0.03 0.02
0.03 0.04 0.04 0.02 0.02 0.02 0.02 0.02 0.02 0.03 0.03 0.02 0.02 0.02 0.02 0.02 0.02 0.03 0.03 0.03 0.03 0.03 0.03 0.03 0.02 0.01 0.01 0.01 0.01 0.01 0.02 0.02 0.03 0.03 0.03 0.03 0.04 0.04 0.04 0.03 0.04 0.04 0.05 0.05
0.02 0.02 0.02 0.02 0.02 0.03 0.02 0.02 0.02 0.02 0.02 0.02 0.02 0.02 0.02 0.02 0.03 0.03 0.03 0.03 0.03 0.03 0.04 0.05 0.03 0.02 0.01 0.01 0.01 0.01 0.02 0.02 0.02 0.03 0.02 0.02 0.02 0.03 0.04 0.03 0.03 0.04 0.04 0.05
0.02 0.01 0.01 0.01 0.01 0.02 0.02 0.02 0.02 0.02 0.01 0.02 0.02 0.02 0.03 0.04 0.03 0.03 0.02 0.03 0.03 0.04 0.04 0.05 0.06 0.05 0.03 0.02 0.01 0.02 0.02 0.02 0.02 0.02 0.02 0.03 0.03 0.03 0.03 0.03 0.03 0.03 0.03 0.03
0.02 0.01 0.02 0.01 0.01 0.01 0.01 0.01 0.01 0.01 0.01 0.01 0.01 0.01 0.02 0.03 0.02 0.03 0.03 0.02 0.02 0.03 0.03 0.04 0.06 0.06 0.05 0.04 0.03 0.03 0.04 0.03 0.03 0.02 0.03 0.03 0.03 0.02 0.03 0.03 0.03 0.03 0.04 0.03
0.01 0.01 0.01 0.01 0.01 0.01 0.01 0.02 0.02 0.02 0.01 0.01 0.01 0.01 0.01 0.02 0.02 0.02 0.02 0.02 0.02 0.02 0.02 0.03 0.04 0.04 0.04 0.05 0.04 0.04 0.05 0.04 0.03 0.03 0.03 0.02 0.03 0.03 0.03 0.03 0.02 0.03 0.03 0.03
0.01 0.01 0.01 0.02 0.02 0.02 0.02 0.02 0.02 0.02 0.01 0.01 0.01 0.01 0.01 0.02 0.01 0.01 0.01 0.03 0.03 0.02 0.02 0.02 0.03 0.04 0.05 0.06 0.06 0.07 0.07 0.06 0.05 0.04 0.04 0.03 0.03 0.02 0.03 0.03 0.02 0.01 0.01 0.01
0.00 0.01 0.02 0.03 0.03 0.02 0.02 0.02 0.01 0.01 0.03 0.03 0.03 0.03 0.01 0.01 0.01 0.01 0.01 0.02 0.03 0.03 0.04 0.03 0.04 0.05 0.05 0.05 0.07 0.08 0.07 0.06 0.05 0.04 0.04 0.03 0.03 0.03 0.02 0.02 0.02 0.01 0.01 0.01
0.01 0.01 0.03 0.03 0.02 0.02 0.01 0.01 0.01 0.02 0.04 0.07 0.07 0.07 0.04 0.01 0.01 0.01 0.01 0.01 0.02 0.02 0.03 0.03 0.04 0.03 0.04 0.05 0.06 0.08 0.08 0.09 0.08 0.06 0.05 0.04 0.03 0.02 0.02 0.02 0.02 0.02 0.02 0.01
0.01 0.02 0.02 0.01 0.01 0.01 0.01 0.01 0.01 0.02 0.03 0.06 0.08 0.08 0.06 0.03 0.02 0.01 0.01 0.01 0.01 0.01 0.02 0.02 0.02 0.02 0.03 0.05 0.05 0.05 0.06 0.07 0.07 0.06 0.05 0.04 0.03 0.02 0.02 0.02 0.02 0.03 0.03 0.02
0.02 0.02 0.02 0.01 0.01 0.01 0.01 0.01 0.01 0.01 0.02 0.05 0.08 0.09 0.08 0.06 0.04 0.02 0.02 0.02 0.01 0.01 0.02 0.02 0.02 0.02 0.03 0.06 0.05 0.05 0.05 0.05 0.05 0.05 0.04 0.03 0.03 0.03 0.03 0.03 0.03 0.03 0.03 0.03
0.04 0.03 0.02 0.02 0.01 0.01 0.02 0.02 0.01 0.01 0.02 0.02 0.05 0.07 0.08 0.07 0.06 0.04 0.03 0.03 0.02 0.02 0.02 0.02 0.02 0.02 0.04 0.06 0.07 0.06 0.05 0.04 0.05 0.05 0.04 0.03 0.03 0.03 0.04 0.04 0.04 0.03 0.03 0.03
0.03 0.02 0.02 0.02 0.02 0.02 0.02 0.02 0.02 0.02 0.02 0.02 0.03 0.04 0.04 0.04 0.04 0.04 0.05 0.04 0.03 0.02 0.02 0.02 0.03 0.03 0.03 0.05 0.08 0.08 0.07 0.05 0.05 0.05 0.05 0.05 0.05 0.04 0.03 0.03 0.03 0.03 0.02 0.02
0.03 0.03 0.03 0.02 0.02 0.02 0.02 0.02 0.02 0.03 0.03 0.04 0.03 0.02 0.02 0.02 0.02 0.02 0.04 0.05 0.03 0.01 0.01 0.02 0.03 0.03 0.04 0.06 0.08 0.08 0.08 0.08 0.06 0.04 0.04 0.04 0.04 0.05 0.04 0.03 0.02 0.03 0.03 0.03
0.05 0.04 0.03 0.03 0.03 0.02 0.02 0.03 0.04 0.05 0.04 0.04 0.04 0.03 0.03 0.02 0.02 0.03 0.04 0.04 0.03 0.02 0.01 0.02 0.03 0.04 0.04 0.05 0.06 0.06 0.06 0.07 0.07 0.05 0.04 0.05 0.04 0.04 0.05 0.04 0.04 0.04 0.03 0.03
0.06 0.05 0.03 0.04 0.05 0.05 0.05 0.05 0.05 0.06 0.06 0.05 0.04 0.03 0.03 0.02 0.02 0.02 0.03 0.03 0.03 0.03 0.02 0.02 0.03 0.02 0.02 0.03 0.03 0.04 0.04 0.05 0.06 0.06 0.05 0.05 0.05 0.05 0.05 0.05 0.06 0.05 0.04 0.03
0.06 0.07 0.05 0.04 0.04 0.04 0.04 0.04 0.04 0.05 0.06 0.04 0.03 0.02 0.02 0.02 0.02 0.01 0.02 0.03 0.03 0.04 0.04 0.03 0.03 0.03 0.03 0.02 0.02 0.03 0.03 0.03 0.04 0.04 0.04 0.05 0.05 0.05 0.05 0.04 0.04 0.04 0.04 0.04
0.06 0.08 0.07 0.08 0.06 0.05 0.05 0.04 0.04 0.04 0.04 0.03 0.02 0.01 0.01 0.01 0.01 0.01 0.02 0.02 0.03 0.03 0.04 0.03 0.03 0.02 0.02 0.02 0.02 0.02 0.02 0.02 0.03 0.03 0.03 0.03 0.03 0.04 0.04 0.04 0.04 0.04 0.04 0.04
0.05 0.05 0.08 0.09 0.09 0.07 0.05 0.05 0.05 0.04 0.04 0.03 0.02 0.02 0.01 0.01 0.01 0.02 0.02 0.02 0.03 0.03 0.03 0.03 0.03 0.03 0.02 0.02 0.02 0.02 0.02 0.02 0.03 0.03 0.02 0.03 0.03 0.04 0.04 0.04 0.04 0.04 0.04 0.03
0.04 0.04 0.05 0.06 0.06 0.06 0.05 0.06 0.05 0.05 0.04 0.04 0.03 0.02 0.01 0.01 0.02 0.02 0.02 0.02 0.02 0.02 0.01 0.01 0.01 0.02 0.02 0.02 0.02 0.02 0.02 0.03 0.03 0.02 0.01 0.02 0.03 0.04 0.05 0.05 0.05 0.04 0.03 0.03
MSLP
1002.85 1002.88 1002.95 1003.10 1003.38 1003.84 1004.47 1005.26 1006.17 1007.13 1008.07 1008.89 1009.54 1009.93 1010.07 1009.93 1009.55 1009.00 1008.33 1007.63 1006.97 1006.42 1006.02 1005.78 1005.71 1005.80 1006.01 1006.32 1006.69 1007.10 1007.53 1007.98 1008.43 1008.88 1009.34 1009.79 1010.23 1010.65 1011.04 1011.39 1011.69 1011.94 1012.13 1012.26
1003.18 1003.41 1003.67 1004.00 1004.43 1004.97 1005.62 1006.37 1007.18 1007.99 1008.76 1009.41 1009.91 1010.20 1010.28 1010.15 1009.84 1009.40 1008.88 1008.34 1007.82 1007.37 1007.01 1006.75 1006.60 1006.54 1006.57 1006.67 1006.84 1007.06 1007.34 1007.67 1008.07 1008.50 1008.99 1009.49 1010.00 1010.50 1010.96 1011.37 1011.71 1011.98 1012.18 1012.30
1003.57 1004.02 1004.50 1005.03 1005.61 1006.25 1006.93 1007.63 1008.32 1008.97 1009.54 1009.99 1010.29 1010.43 1010.43 1010.28 1010.02 1009.68 1009.30 1008.91 1008.53 1008.19 1007.88 1007.62 1007.40 1007.22 1007.08 1007.00 1006.97 1007.02 1007.16 1007.39 1007.72 1008.15 1008.65 1009.21 1009.78 1010.34 1010.86 1011.31 1011.68 1011.96 1012.15 1012.26
1004.16 1004.80 1005.47 1006.17 1006.88 1007.60 1008.28 1008.92 1009.49 1009.96 1010.32 1010.55 1010.65 1010.64 1010.52 1010.33 1010.09 1009.82 1009.55 1009.28 1009.03 1008.77 1008.52 1008.25 1007.98 1007.70 1007.42 1007.18 1007.00 1006.91 1006.92 1007.08 1007.36 1007.78 1008.30 1008.89 1009.51 1010.11 1010.67 1011.15 1011.53 1011.81 1011.98 1012.07
1005.03 1005.80 1006.60 1007.40 1008.19 1008.92 1009.58 1010.14 1010.57 1010.86 1011.02 1011.04 1010.95 1010.78 1010.55 1010.30 1010.05 1009.82 1009.62 1009.44 1009.26 1009.07 1008.84 1008.57 1008.25 1007.89 1007.51 1007.15 1006.86 1006.66 1006.60 1006.70 1006.96 1007.37 1007.90 1008.51 1009.16 1009.79 1010.36 1010.85 1011.23 1011.50 1011.66 1011.73
1006.22 1007.03 1007.86 1008.68 1009.46 1010.16 1010.74 1011.19 1011.47 1011.60 1011.57 1011.42 1011.16 1010.85 1010.52 1010.20 1009.93 1009.70 1009.53 1009.38 1009.24 1009.07 1008.85 1008.56 1008.20 1007.78 1007.34 1006.91 1006.55 1006.30 1006.20 1006.27 1006.52 1006.92 1007.46 1008.08 1008.73 1009.37 1009.94 1010.42 1010.79 1011.05 1011.22 1011.29
1007.66 1008.42 1009.19 1009.94 1010.63 1011.23 1011.69 1012.00 1012.14 1012.12 1011.94 1011.64 1011.25 1010.83 1010.42 1010.04 1009.73 1009.49 1009.31 1009.16 1009.02 1008.84 1008.61 1008.29 1007.90 1007.45 1006.97 1006.52 1006.13 1005.87 1005.77 1005.84 1006.09 1006.50 1007.03 1007.65 1008.28 1008.90 1009.45 1009.91 1010.28 1010.54 1010.72 1010.82
1009.22 1009.86 1010.49 1011.09 1011.63 1012.07 1012.38 1012.54 1012.55 1012.39 1012.10 1011.70 1011.23 1010.74 1010.27 1009.85 1009.51 1009.24 1009.03 1008.85 1008.68 1008.48 1008.21 1007.87 1007.47 1007.00 1006.53 1006.08 1005.72 1005.48 1005.40 1005.48 1005.74 1006.15 1006.67 1007.25 1007.86 1008.44 1008.96 1009.41 1009.76 1010.04 1010.25 1010.41
1010.72 1011.18 1011.62 1012.03 1012.37 1012.63 1012.78 1012.80 1012.68 1012.43 1012.06 1011.60 1011.10 1010.58 1010.09 1009.65 1009.28 1008.98 1008.74 1008.53 1008.32 1008.08 1007.80 1007.44 1007.03 1006.59 1006.14 1005.73 1005.41 1005.21 1005.16 1005.27 1005.53 1005.92 1006.41 1006.95 1007.50 1008.04 1008.52 1008.95 1009.31 1009.61 1009.87 1010.09
1011.98 1012.25 1012.48 1012.68 1012.82 1012.90 1012.89 1012.78 1012.57 1012.26 1011.85 1011.38 1010.88 1010.37 1009.89 1009.45 1009.08 1008.77 1008.51 1008.27 1008.03 1007.77 1007.46 1007.11 1006.71 1006.30 1005.89 1005.54 1005.26 1005.11 1005.09 1005.20 1005.45 1005.81 1006.25 1006.73 1007.22 1007.70 1008.14 1008.55 1008.92 1009.25 1009.57 1009.87
1012.87 1012.95 1012.99 1012.99 1012.96 1012.88 1012.74 1012.54 1012.26 1011.92 1011.51 1011.06 1010.59 1010.12 1009.68 1009.28 1008.93 1008.63 1008.36 1008.11 1007.86 1007.58 1007.28 1006.93 1006.56 1006.18 1005.81 1005.50 1005.27 1005.15 1005.13 1005.24 1005.45 1005.76 1006.13 1006.54 1006.96 1007.38 1007.79 1008.18 1008.56 1008.94 1009.32 1009.70
1013.34 1013.26 1013.15 1012.99 1012.82 1012.62 1012.39 1012.12 1011.82 1011.47 1011.09 1010.68 1010.26 1009.85 1009.47 1009.12 1008.81 1008.54 1008.29 1008.04 1007.80 1007.53 1007.23 1006.90 1006.55 1006.19 1005.86 1005.57 1005.35 1005.22 1005.19 1005.26 1005.42 1005.65 1005.94 1006.27 1006.63 1007.00 1007.38 1007.77 1008.17 1008.60 1009.03 1009.48
1013.45 1013.27 1013.04 1012.78 1012.51 1012.23 1011.94 1011.64 1011.32 1010.98 1010.63 1010.27 1009.91 1009.57 1009.25 1008.97 1008.71 1008.48 1008.26 1008.04 1007.81 1007.55 1007.26 1006.94 1006.59 1006.24 1005.90 1005.60 1005.36 1005.20 1005.12 1005.12 1005.20 1005.36 1005.57 1005.84 1006.14 1006.47 1006.84 1007.24 1007.68 1008.14 1008.64 1009.14
1013.34 1013.08 1012.79 1012.47 1012.14 1011.82 1011.49 1011.17 1010.85 1010.52 1010.20 1009.88 1009.57 1009.29 1009.03 1008.81 1008.60 1008.42 1008.24 1008.05 1007.83 1007.58 1007.29 1006.96 1006.59 1006.21 1005.84 1005.49 1005.19 1004.95 1004.79 1004.71 1004.71 1004.79 1004.94 1005.16 1005.43 1005.76 1006.13 1006.56 1007.04 1007.55 1008.09 1008.64
1013.17 1012.88 1012.55 1012.20 1011.85 1011.50 1011.15 1010.81 1010.48 1010.15 1009.84 1009.54 1009.27 1009.03 1008.82 1008.64 1008.48 1008.34 1008.19 1008.02 1007.82 1007.56 1007.25 1006.88 1006.47 1006.03 1005.57 1005.14 1004.75 1004.42 1004.17 1004.00 1003.93 1003.95 1004.06 1004.25 1004.53 1004.88 1005.29 1005.77 1006.30 1006.86 1007.44 1008.02
1013.09 1012.79 1012.46 1012.10 1011.73 1011.36 1010.99 1010.62 1010.27 1009.92 1009.60 1009.30 1009.04 1008.82 1008.64 1008.49 1008.36 1008.24 1008.12 1007.96 1007.74 1007.46 1007.11 1006.69 1006.20 1005.67 1005.12 1004.59 1004.09 1003.65 1003.31 1003.07 1002.94 1002.92 1003.02 1003.24 1003.55 1003.95 1004.43 1004.97 1005.55 1006.16 1006.78 1007.38
1013.22 1012.92 1012.58 1012.22 1011.83 1011.44 1011.04 1010.64 1010.24 1009.86 1009.50 1009.18 1008.91 1008.68 1008.51 1008.37 1008.26 1008.16 1008.04 1007.88 1007.64 1007.33 1006.92 1006.43 1005.86 1005.23 1004.57 1003.93 1003.32 1002.80 1002.37 1002.08 1001.92 1001.91 1002.04 1002.29 1002.67 1003.15 1003.71 1004.32 1004.97 1005.62 1006.27 1006.87
1013.57 1013.28 1012.94 1012.57 1012.17 1011.74 1011.30 1010.84 1010.39 1009.96 1009.56 1009.20 1008.89 1008.65 1008.46 1008.32 1008.22 1008.12 1008.00 1007.83 1007.58 1007.23 1006.77 1006.21 1005.55 1004.84 1004.09 1003.35 1002.66 1002.07 1001.60 1001.28 1001.13 1001.14 1001.32 1001.66 1002.12 1002.68 1003.32 1004.01 1004.71 1005.40 1006.05 1006.65
1014.12 1013.83 1013.48 1013.09 1012.66 1012.20 1011.71 1011.20 1010.69 1010.20 1009.74 1009.33 1008.99 1008.73 1008.53 1008.39 1008.28 1008.19 1008.07 1007.89 1007.63 1007.25 1006.76 1006.15 1005.44 1004.67 1003.86 1003.07 1002.34 1001.72 1001.24 1000.93 1000.81 1000.88 1001.13 1001.55 1002.09 1002.74 1003.45 1004.18 1004.92 1005.62 1006.27 1006.85
1014.76 1014.45 1014.10 1013.69 1013.23 1012.72 1012.19 1011.63 1011.06 1010.52 1010.02 1009.57 1009.20 1008.92 1008.72 1008.57 1008.48 1008.39 1008.28 1008.12 1007.86 1007.48 1006.99 1006.37 1005.65 1004.86 1004.04 1003.25 1002.52 1001.92 1001.47 1001.20 1001.14 1001.27 1001.59 1002.07 1002.68 1003.39 1004.14 1004.90 1005.64 1006.33 1006.95 1007.49
1015.36 1015.04 1014.67 1014.24 1013.76 1013.22 1012.65 1012.06 1011.46 1010.88 1010.35 1009.88 1009.50 1009.21 1009.01 1008.88 1008.80 1008.74 1008.66 1008.52 1008.29 1007.95 1007.49 1006.91 1006.23 1005.48 1004.70 1003.95 1003.28 1002.73 1002.34 1002.13 1002.13 1002.32 1002.69 1003.22 1003.87 1004.59 1005.34 1006.09 1006.80 1007.46 1008.03 1008.51
1015.82 1015.49 1015.11 1014.67 1014.17 1013.63 1013.04 1012.44 1011.83 1011.24 1010.71 1010.24 1009.87 1009.58 1009.40 1009.29 1009.24 1009.21 1009.17 1009.08 1008.91 1008.63 1008.24 1007.74 1007.14 1006.48 1005.80 1005.14 1004.55 1004.09 1003.77 1003.64 1003.69 1003.92 1004.33 1004.87 1005.51 1006.21 1006.93 1007.63 1008.28 1008.87 1009.37 1009.79
1016.08 1015.75 1015.37 1014.93 1014.45 1013.91 1013.34 1012.75 1012.16 1011.59 1011.07 1010.63 1010.28 1010.02 1009.86 1009.78 1009.76 1009.78 1009.78 1009.75 1009.65 1009.46 1009.16 1008.77 1008.29 1007.75 1007.19 1006.65 1006.18 1005.82 1005.59 1005.52 1005.62 1005.87 1006.27 1006.79 1007.39 1008.03 1008.68 1009.31 1009.88 1010.38 1010.80 1011.15
1016.15 1015.83 1015.46 1015.05 1014.59 1014.09 1013.56 1013.01 1012.46 1011.94 1011.46 1011.05 1010.74 1010.51 1010.38 1010.33 1010.35 1010.40 1010.45 1010.48 1010.45 1010.35 1010.15 1009.88 1009.53 1009.12 1008.70 1008.30 1007.95 1007.69 1007.54 1007.53 1007.65 1007.91 1008.28 1008.75 1009.28 1009.84 1010.40 1010.92 1011.40 1011.81 1012.16 1012.43
1016.08 1015.78 1015.44 1015.07 1014.67 1014.22 1013.75 1013.27 1012.78 1012.32 1011.90 1011.54 1011.26 1011.07 1010.97 1010.94 1010.98 1011.05 1011.14 1011.21 1011.24 1011.21 1011.11 1010.95 1010.72 1010.45 1010.16 1009.88 1009.64 1009.48 1009.40 1009.43 1009.56 1009.80 1010.13 1010.53 1010.98 1011.44 1011.90 1012.33 1012.71 1013.04 1013.32 1013.53
1015.98 1015.71 1015.41 1015.10 1014.76 1014.39 1013.99 1013.58 1013.17 1012.78 1012.42 1012.12 1011.88 1011.71 1011.63 1011.61 1011.65 1011.73 1011.82 1011.91 1011.98 1012.00 1011.97 1011.89 1011.76 1011.60 1011.42 1011.25 1011.11 1011.02 1011.00 1011.05 1011.19 1011.40 1011.68 1012.01 1012.37 1012.75 1013.11 1013.45 1013.76 1014.02 1014.23 1014.41
1015.93 1015.71 1015.47 1015.22 1014.94 1014.65 1014.33 1014.00 1013.67 1013.35 1013.06 1012.80 1012.60 1012.46 1012.38 1012.35 1012.38 1012.44 1012.52 1012.60 1012.67 1012.71 1012.71 1012.68 1012.61 1012.53 1012.43 1012.34 1012.27 1012.24 1012.26 1012.33 1012.47 1012.65 1012.89 1013.16 1013.45 1013.75 1014.04 1014.32 1014.56 1014.77 1014.94 1015.08
Thickness
5723 5727 5725 5720 5720 5720 5717 5718 5714 5715 5714 5714 5715 5716 5716 5716 5717 5717 5717 5717 5717 5715 5715 5715 5715 5714 5713 5712 5712 5711 5710 5708 5707 5706 5705 5703 5702 5700 5699 5698 5698 5697 5697 5696
5709 5716 5716 5711 5713 5714 5711 5712 5711 5710 5707 5712 5712 5712 5710 5710 5710 5710 5710 5711 5711 5710 5709 5709 5709 5709 5708 5707 5707 5706 5705 5705 5704 5703 5701 5699 5698 5697 5696 5695 5695 5695 5694 5694
5698 5707 5703 5697 5704 5704 5701 5703 5703 5698 5699 5704 5702 5701 5701 5702 5703 5704 5705 5705 5704 5704 5703 5703 5704 5705 5703 5704 5703 5702 5701 5701 5700 5699 5697 5697 5696 5694 5692 5691 5691 5691 5691 5691
5693 5689 5676 5691 5704 5701 5694 5691 5695 5694 5694 5695 5694 5697 5698 5698 5696 5697 5698 5698 5699 5699 5699 5700 5700 5700 5700 5700 5699 5697 5697 5697 5697 5695 5694 5693 5692 5691 5690 5688 5688 5688 5687 5688
5682 5680 5681 5682 5688 5688 5683 5678 5683 5682 5684 5686 5690 5692 5692 5692 5691 5691 5693 5693 5693 5694 5694 5694 5694 5694 5694 5694 5694 5693 5693 5693 5694 5693 5691 5689 5688 5687 5686 5685 5684 5685 5685 5685
5672 5667 5666 5669 5679 5684 5679 5666 5671 5671 5670 5674 5678 5678 5680 5681 5683 5685 5686 5687 5687 5688 5688 5687 5687 5688 5687 5687 5688 5689 5690 5690 5690 5689 5687 5686 5685 5684 5683 5682 5682 5683 5683 5682
5659 5658 5659 5659 5668 5672 5657 5653 5658 5661 5661 5662 5663 5665 5668 5672 5674 5677 5679 5680 5681 5681 5681 5681 5681 5681 5680 5682 5683 5685 5686 5687 5686 5685 5684 5683 5682 5680 5680 5680 5680 5679 5679 5679
5647 5644 5641 5648 5653 5646 5642 5647 5649 5650 5652 5652 5653 5656 5660 5663 5666 5668 5671 5673 5674 5673 5674 5675 5675 5675 5675 5676 5678 5680 5681 5681 5681 5680 5680 5681 5678 5677 5676 5676 5675 5675 5675 5675
5632 5630 5630 5636 5635 5634 5636 5636 5638 5640 5643 5643 5644 5647 5651 5654 5657 5660 5662 5664 5665 5666 5666 5667 5668 5669 5669 5670 5673 5675 5675 5675 5675 5675 5675 5676 5675 5673 5672 5672 5673 5674 5673 5673
5619 5621 5622 5624 5624 5625 5626 5626 5628 5632 5634 5636 5636 5639 5642 5645 5648 5650 5653 5655 5656 5658 5659 5659 5661 5662 5663 5666 5667 5668 5668 5669 5670 5669 5669 5669 5669 5670 5670 5669 5670 5670 5670 5670
5607 5609 5613 5615 5614 5614 5616 5618 5620 5623 5625 5628 5629 5631 5634 5636 5639 5642 5644 5646 5647 5649 5651 5652 5654 5655 5657 5659 5659 5660 5661 5663 5664 5664 5664 5663 5663 5664 5665 5665 5666 5664 5666 5666
5595 5598 5599 5601 5605 5606 5607 5609 5611 5613 5616 5619 5621 5623 5626 5629 5631 5633 5635 5637 5639 5641 5643 5644 5646 5647 5649 5651 5652 5652 5653 5655 5657 5659 5658 5658 5657 5656 5654 5655 5654 5654 5654 5654
5584 5588 5589 5592 5596 5598 5599 5601 5603 5606 5608 5610 5613 5616 5618 5621 5624 5626 5628 5630 5631 5633 5635 5637 5638 5640 5641 5642 5643 5645 5646 5647 5649 5651 5652 5652 5652 5651 5649 5646 5644 5644 5644 5644
5577 5578 5580 5584 5587 5590 5592 5594 5596 5598 5601 5603 5605 5608 5611 5613 5616 5617 5619 5622 5624 5626 5628 5630 5631 5632 5634 5636 5636 5637 5639 5640 5640 5642 5644 5645 5645 5646 5646 5645 5644 5643 5640 5637
5569 5571 5573 5576 5579 5582 5584 5587 5588 5591 5593 5595 5597 5600 5602 5604 5607 5609 5612 5614 5616 5617 5620 5622 5623 5625 5627 5629 5629 5630 5632 5634 5634 5635 5636 5638 5639 5641 5641 5641 5641 5640 5640 5636
5563 5565 5567 5569 5571 5573 5576 5578 5580 5583 5585 5587 5589 5591 5594 5597 5599 5601 5603 5605 5606 5608 5611 5613 5615 5616 5619 5621 5621 5623 5624 5623 5624 5627 5629 5630 5632 5634 5635 5635 5635 5635 5635 5634
5554 5556 5558 5560 5563 5565 5568 5571 5572 5575 5577 5579 5580 5583 5585 5588 5590 5592 5594 5597 5597 5599 5602 5604 5606 5608 5610 5613 5614 5617 5618 5618 5616 5620 5622 5624 5626 5627 5628 5628 5629 5630 5630 5630
5547 5549 5550 5552 5555 5558 5561 5563 5565 5567 5569 5571 5573 5574 5575 5577 5580 5582 5585 5587 5589 5591 5594 5596 5598 5600 5603 5605 5607 5611 5612 5614 5615 5616 5617 5618 5619 5621 5622 5622 5622 5622 5624 5623
5540 5542 5544 5546 5548 5550 5553 5556 5558 5560 5562 5563 5564 5565 5566 5568 5570 5573 5576 5577 5579 5582 5585 5587 5586 5591 5595 5598 5599 5603 5606 5607 5608 5609 5611 5610 5612 5614 5615 5616 5617 5618 5619 5618
5535 5537 5538 5540 5543 5545 5547 5549 5551 5552 5554 5555 5556 5557 5558 5560 5562 5564 5566 5568 5571 5574 5575 5577 5580 5585 5588 5591 5591 5597 5599 5601 5602 5603 5604 5606 5608 5608 5609 5611 5611 5612 5612 5612
5529 5531 5532 5534 5536 5539 5541 5543 5543 5544 5545 5547 5548 5549 5550 5552 5554 5556 5558 5561 5563 5565 5566 5567 5573 5577 5581 5582 5584 5591 5593 5594 5595 5597 5599 5601 5602 5603 5603 5604 5604 5604 5604 5604
5521 5523 5525 5527 5529 5531 5533 5535 5536 5538 5539 5541 5542 5543 5543 5545 5548 5550 5552 5554 5556 5556 5560 5564 5567 5568 5570 5572 5581 5585 5586 5588 5589 5591 5593 5594 5595 5596 5597 5597 5598 5598 5597 5597
5514 5516 5518 5519 5521 5523 5526 5528 5531 5533 5534 5535 5536 5537 5539 5540 5543 5544 5546 5549 5550 5549 5554 5557 5557 5557 5559 5568 5574 5577 5579 5580 5582 5584 5586 5587 5589 5590 5590 5591 5591 5591 5591 5590
5509 5510 5512 5514 5516 5519 5521 5524 5526 5527 5529 5530 5532 5533 5535 5537 5538 5540 5541 5540 5541 5543 5548 5548 5548 5551 5553 5563 5568 5570 5572 5574 5575 5577 5579 5580 5581 5582 5582 5582 5583 5583 5582 5582
5504 5505 5507 5509 5511 5514 5516 5518 5520 5522 5523 5526 5528 5530 5532 5532 5533 5535 5535 5536 5536 5538 5543 5544 5544 5545 5552 5558 5561 5563 5566 5567 5568 5569 5570 5571 5572 5573 5574 5575 5575 5575 5575 5574
5500 5501 5503 5503 5505 5507 5511 5513 5515 5516 5517 5519 5523 5525 5527 5528 5528 5529 5529 5531 5533 5534 5538 5541 5543 5544 5549 5553 5555 5556 5558 5560 5561 5562 5562 5563 5564 5565 5565 5566 5566 5567 5567 5567
5498 5498 5500 5502 5503 5505 5507 5508 5510 5512 5513 5514 5516 5519 5521 5523 5523 5524 5525 5527 5529 5532 5535 5537 5539 5542 5545 5547 5549 5549 5551 5552 5553 5553 5554 5555 5556 5557 5558 5557 5558 5558 5558 5558